CAPE
0 0 0 0 0 0 0 0 0 0 0 0 0 0 0 0 0 0 0 0 0 0 0 0 0 0 0 0 0 0 0 0 0 0 0 0 0 424 345 359 180 60 5 1
0 0 0 0 0 0 0 0 0 0 0 0 0 0 0 0 0 0 0 0 0 0 0 0 0 0 0 0 0 0 0 0 0 0 0 0 46 406 297 211 94 5 0 0
0 0 0 0 0 0 0 0 0 0 0 0 0 0 0 0 0 0 0 0 0 0 0 0 0 0 0 0 0 0 0 0 0 0 0 0 105 228 335 87 1 5 0 0
0 0 0 0 0 0 0 0 0 0 0 0 0 0 0 0 0 0 0 0 0 0 0 0 0 0 0 0 0 0 0 0 0 0 0 0 1 112 91 31 0 0 1 0
0 0 0 0 0 0 0 0 0 0 0 0 0 0 0 0 0 0 0 0 0 0 0 0 0 0 0 0 0 0 0 0 0 0 0 0 17 150 87 45 0 0 0 0
0 0 0 0 0 0 0 0 0 0 0 0 0 0 0 0 0 0 0 0 0 0 0 0 0 0 1 0 0 0 1 0 0 0 0 48 96 176 104 40 0 0 0 0
0 0 0 0 0 0 0 0 0 0 0 0 0 0 0 0 0 0 0 0 0 0 0 0 1 2 1 8 8 2 4 0 0 0 0 42 158 226 93 1 0 0 0 0
0 0 0 0 0 0 0 0 0 0 0 0 0 0 0 0 0 0 0 0 0 0 0 1 2 6 5 1 8 3 0 1 2 1 0 53 195 231 173 19 0 0 0 0
0 0 0 0 0 0 0 0 0 0 0 0 0 0 0 0 0 0 0 0 0 0 0 2 2 5 3 3 4 5 4 2 1 0 3 173 329 264 130 2 0 1 0 0
0 0 0 0 0 0 0 0 0 0 0 0 0 0 0 0 0 0 0 0 0 0 0 0 2 4 3 3 4 3 2 5 3 1 45 287 398 234 164 5 1 0 0 0
0 0 0 0 0 0 0 0 0 8 0 0 0 0 0 0 0 0 0 0 0 0 0 0 1 1 1 0 2 1 1 2 0 0 0 57 144 73 35 4 0 0 0 0
0 0 0 0 0 0 0 0 0 0 0 0 0 0 0 0 0 0 0 0 0 0 0 0 0 0 0 0 0 0 1 0 1 1 0 0 0 1 1 0 0 0 0 0
0 0 0 0 0 0 0 0 0 0 0 0 0 0 0 0 0 0 0 0 0 0 0 0 0 0 0 0 0 0 1 1 6 1 0 0 0 0 0 1 1 0 0 0
2 0 0 0 0 0 0 0 0 0 0 0 0 0 0 0 0 0 0 0 0 0 0 0 0 0 0 0 0 0 0 2 5 6 2 0 0 0 0 0 0 1 1 0
11 3 0 0 0 0 0 0 0 0 0 0 0 0 0 0 0 0 0 0 0 0 0 0 0 0 0 0 0 0 0 0 5 1 1 0 1 0 2 0 0 0 0 1
0 4 0 0 0 0 0 0 0 0 0 0 0 0 0 0 0 0 0 0 0 0 0 0 0 0 0 0 0 0 0 0 0 0 4 3 2 0 0 0 0 0 0 0
1 0 0 0 0 0 0 0 0 0 0 0 0 0 0 0 0 0 0 0 0 0 0 0 0 0 0 0 0 0 0 0 0 0 5 2 2 1 0 0 0 0 0 0
2 0 0 0 0 0 0 0 0 0 0 0 0 0 0 0 0 0 0 0 0 0 0 0 0 0 0 0 0 0 0 0 0 0 0 0 0 0 0 0 0 0 0 0
0 0 0 0 0 0 0 0 0 0 0 0 0 0 0 0 0 0 0 0 0 0 0 0 0 0 0 0 0 0 0 0 0 0 0 0 0 0 0 0 0 0 0 0
0 0 0 0 0 0 0 0 0 0 0 0 0 0 0 0 0 0 0 0 0 0 0 0 0 0 0 0 0 0 0 0 0 0 0 0 0 0 0 0 0 0 0 0
0 0 0 0 0 0 0 0 0 0 0 0 0 0 0 0 0 0 0 0 0 0 0 0 0 0 0 0 0 0 0 0 0 0 0 0 0 0 0 0 0 0 0 0
0 0 0 0 0 0 0 0 0 0 0 0 0 0 0 0 0 0 0 0 0 0 0 0 0 0 0 0 0 0 0 0 0 0 0 0 0 0 0 0 0 0 0 0
0 0 0 0 0 0 0 0 0 0 0 0 0 0 0 0 0 0 0 0 0 0 0 0 0 0 0 0 0 0 0 0 0 0 0 0 0 0 0 0 0 0 0 0
0 0 0 0 0 0 0 0 0 0 0 0 0 0 0 0 0 0 0 0 0 0 0 0 0 0 0 0 0 0 0 0 0 0 0 0 0 0 0 0 0 0 0 0
0 0 0 0 0 0 0 0 0 0 0 0 0 0 0 0 0 0 0 0 0 0 0 0 0 0 0 0 0 0 0 0 0 0 0 0 0 0 0 0 0 0 0 0
0 0 0 0 0 0 0 0 0 0 0 0 0 0 0 0 0 0 0 0 0 0 0 0 0 0 0 0 0 0 0 0 0 0 0 0 0 0 0 0 0 0 0 1
CIN
0 0 0 0 0 0 0 0 0 0 0 0 0 0 0 0 0 0 0 0 0 0 0 0 0 0 0 0 0 0 0 0 0 0 0 0 0 -1 -3 0 -5 -61 -57 0
0 0 0 0 0 0 0 0 0 0 0 0 0 0 0 0 0 0 0 0 0 0 0 0 0 0 0 0 0 0 0 0 0 0 0 0 -1 -2 -3 -4 -43 -127 0 0
0 0 0 0 0 0 0 0 0 0 0 0 0 0 0 0 0 0 0 0 0 0 0 0 0 0 0 0 0 0 0 0 0 0 0 0 -11 -2 0 -15 -5 -149 0 0
0 0 0 0 0 0 0 0 0 0 0 0 0 0 0 0 0 0 0 0 0 0 0 0 0 0 0 0 0 0 0 0 0 0 0 0 -4 -1 -1 -21 0 0 0 0
0 0 0 0 0 0 0 0 0 0 0 0 0 0 0 0 0 0 0 0 0 0 0 0 0 0 0 0 0 0 0 0 0 0 0 0 -36 -3 -4 -17 0 0 0 0
0 0 0 0 0 0 0 0 0 0 0 0 0 0 0 0 0 0 0 0 0 0 0 0 0 0 0 0 0 0 0 0 0 0 0 -57 -25 -2 -2 -48 0 0 0 0
0 0 0 0 0 0 0 0 0 0 0 0 0 0 0 0 0 0 0 0 0 0 0 0 0 0 0 0 0 0 0 0 0 0 0 -93 -26 -4 -8 -13 0 0 0 0
0 0 0 0 0 0 0 0 0 0 0 0 0 0 0 0 0 0 0 0 0 0 0 0 0 0 0 0 0 0 0 0 0 0 0 -112 -42 -5 -1 -31 0 0 0 0
0 0 0 0 0 0 0 0 0 0 0 0 0 0 0 0 0 0 0 0 0 0 0 0 0 0 0 0 0 0 0 0 0 0 -2 -50 -48 -10 -9 -16 0 0 0 0
0 0 0 0 0 0 0 0 0 0 0 0 0 0 0 0 0 0 0 0 0 0 0 0 0 0 0 0 0 0 0 0 0 0 -4 -43 -37 -24 -8 -56 0 0 0 0
0 0 0 0 0 0 0 0 0 0 0 0 0 0 0 0 0 0 0 0 0 0 0 0 0 0 0 0 0 0 0 0 0 0 0 -132 -94 -48 -66 -111 0 0 0 0
0 0 0 0 0 0 0 0 0 -1 0 0 0 0 0 0 0 0 0 0 0 0 0 0 0 0 0 0 0 0 0 0 0 0 0 0 0 0 0 -36 0 0 0 0
0 0 0 0 0 0 0 0 0 0 0 0 -1 0 0 0 0 0 0 0 0 0 0 0 0 0 0 0 0 0 0 0 0 0 0 0 0 0 0 0 0 0 0 0
0 0 0 0 0 0 0 0 0 0 0 0 0 0 0 0 0 0 0 0 0 0 0 0 0 0 0 0 0 0 0 0 0 0 0 0 0 0 0 0 0 0 0 0
-10 -7 0 0 0 0 0 0 0 0 0 0 0 0 0 0 0 0 0 0 0 0 0 0 0 0 0 0 0 0 0 0 0 0 0 0 0 0 0 0 0 0 0 0
0 -1 0 0 0 0 0 0 0 0 0 0 0 0 0 0 0 0 0 0 0 0 0 0 0 0 0 0 0 0 0 0 0 0 0 0 0 0 0 0 0 0 0 0
-2 0 0 0 0 0 0 0 0 0 0 0 0 0 0 0 0 0 0 0 0 0 0 0 0 0 0 0 0 0 0 0 0 0 0 0 0 0 0 0 0 0 0 0
-1 0 0 0 0 0 0 0 0 0 0 0 0 0 0 0 0 0 0 0 0 0 0 0 0 0 0 0 0 0 0 0 0 0 0 0 0 0 0 0 0 0 0 0
0 0 0 0 0 0 0 0 0 0 0 0 0 0 0 0 0 0 0 0 0 0 0 0 0 0 0 0 0 0 0 0 0 0 0 0 0 0 0 0 0 0 0 0
0 0 0 0 0 0 0 0 0 0 0 0 0 0 0 0 0 0 0 0 0 0 0 0 0 0 0 0 0 0 0 0 0 0 0 0 0 0 0 0 0 0 0 0
0 0 0 0 0 0 0 0 0 0 0 0 0 0 0 0 0 0 0 0 0 0 0 0 0 0 0 0 0 0 0 0 0 0 0 0 0 0 0 0 0 0 0 0
0 0 0 0 0 0 0 0 0 0 0 0 0 0 0 0 0 0 0 0 0 0 0 0 0 0 0 0 0 0 0 0 0 0 0 0 0 0 0 0 0 0 0 0
0 0 0 0 0 0 0 0 0 0 0 0 0 0 0 0 0 0 0 0 0 0 0 0 0 0 0 0 0 0 0 0 0 0 0 0 0 0 0 0 0 0 0 0
0 0 0 0 0 0 0 0 0 0 0 0 0 0 0 0 0 0 0 0 0 0 0 0 0 0 0 0 0 0 0 0 0 0 0 0 0 0 0 0 0 0 0 0
-1 0 0 0 0 0 0 0 0 0 0 0 0 0 0 0 0 0 0 0 0 0 0 0 0 0 0 0 0 0 0 0 0 0 0 0 0 0 0 0 0 0 0 0
0 0 0 0 0 0 0 0 0 0 0 0 0 0 0 0 0 0 0 0 0 0 0 0 0 0 0 0 0 0 0 0 0 0 0 0 0 0 0 0 0 0 0 0
Wind_Speed
1 2 8 14 15 16 12 16 21 24 21 17 24 25 31 21 16 22 11 6 9 11 13 15 14 15 16 18 20 22 20 21 15 12 9 8 11 11 11 11 14 15 12 13
4 12 14 4 10 13 15 20 24 23 17 11 19 29 26 22 16 6 2 5 9 14 14 15 15 14 14 16 18 21 20 20 16 12 10 8 8 10 10 10 12 14 13 16
8 9 4 9 14 14 16 17 19 20 20 12 20 20 18 5 5 2 1 5 7 12 16 17 16 16 16 17 17 18 20 20 18 17 12 9 8 10 9 10 10 13 17 15
8 6 6 6 10 9 15 9 14 15 13 8 5 14 32 7 5 3 9 11 13 16 17 17 19 19 17 19 16 18 20 18 16 17 13 16 11 12 10 11 10 12 16 17
15 3 6 7 10 4 11 7 11 16 17 13 6 7 6 4 4 5 10 15 14 15 17 19 20 20 20 20 15 15 18 17 17 15 14 11 14 11 7 10 13 11 12 13
19 1 5 8 3 4 6 6 13 4 2 0 6 8 14 3 2 6 11 13 16 16 18 18 18 19 17 17 11 13 15 14 15 16 16 16 16 14 8 14 13 10 10 10
6 5 3 5 5 5 8 8 6 8 5 7 4 9 14 2 2 5 11 14 14 15 15 17 19 18 17 18 15 13 14 13 12 16 16 16 16 16 17 12 12 13 10 9
0 11 3 3 5 6 3 7 3 7 4 16 10 8 7 5 3 9 11 15 15 16 16 17 18 18 16 18 15 13 16 15 12 13 16 15 15 11 10 13 10 10 11 12
4 9 4 4 3 8 5 4 5 6 1 3 4 8 5 7 12 15 16 17 17 18 17 19 19 17 16 16 15 13 12 12 12 13 14 14 12 13 13 12 14 12 11 11
3 7 3 1 3 3 6 2 5 1 5 7 6 7 7 6 11 14 14 14 15 16 17 17 17 16 15 16 13 12 9 9 8 9 12 12 13 12 14 13 13 12 12 15
2 4 7 4 3 6 4 3 5 5 3 3 7 7 5 4 7 12 13 14 15 16 16 16 16 15 15 16 14 12 10 9 6 6 3 11 9 11 13 12 10 11 9 12
7 1 5 12 5 3 4 6 5 2 5 6 7 16 5 6 6 7 13 14 14 14 15 15 16 15 16 16 16 14 11 10 9 6 10 7 13 8 8 11 11 12 11 10
5 3 4 11 4 2 2 4 5 3 5 12 8 10 4 5 4 7 12 13 14 16 16 16 16 16 17 16 16 16 14 12 10 8 14 12 17 12 9 9 6 8 11 10
9 6 9 12 16 2 6 9 7 5 5 5 13 21 20 11 9 11 11 12 12 13 15 15 16 16 17 17 17 17 15 14 11 11 15 15 15 14 12 10 11 10 5 9
4 9 8 12 16 5 11 16 17 11 15 8 17 5 17 10 6 8 9 11 12 14 16 16 17 16 16 18 17 16 15 14 12 14 14 15 14 12 14 14 13 13 10 7
4 15 4 4 7 6 7 17 13 11 12 14 16 17 2 2 3 7 9 10 11 13 14 15 16 18 17 16 16 16 17 16 14 15 14 12 13 15 14 15 13 14 11 10
7 4 4 4 1 5 10 8 5 3 4 5 3 5 2 3 3 4 7 8 8 11 12 15 15 15 15 16 13 15 15 15 15 16 14 15 15 16 15 13 13 13 11 11
12 9 4 2 2 2 9 3 4 6 6 6 8 6 3 3 2 2 3 5 7 8 10 11 11 13 14 14 15 14 14 15 16 13 13 15 14 13 12 14 13 11 9 10
15 5 3 2 4 7 7 3 4 4 5 4 5 1 1 2 0 2 2 2 4 5 6 6 8 9 12 12 13 11 14 14 14 15 16 14 12 14 14 14 12 10 10 9
3 3 4 3 3 5 7 5 3 3 3 2 3 2 3 2 3 4 2 3 4 5 5 7 8 8 9 11 11 13 13 13 15 14 12 11 11 11 12 10 10 7 7 7
3 1 4 2 1 9 6 6 4 6 7 2 4 5 5 3 3 2 2 2 3 3 6 7 7 7 8 9 8 11 11 13 10 9 9 11 10 11 9 9 7 7 7 8
4 3 3 3 2 8 5 3 5 7 3 2 3 4 4 3 2 2 3 3 2 4 5 5 5 7 8 10 9 10 11 9 9 9 11 11 10 8 7 9 8 8 7 9
4 3 2 7 7 4 6 5 2 4 4 5 3 4 5 6 6 5 4 3 1 1 2 2 3 5 5 7 8 8 9 9 8 7 8 8 7 8 7 8 8 6 7 7
3 3 3 1 3 6 6 4 3 6 5 4 5 5 7 6 7 6 4 4 3 1 1 3 5 6 6 7 7 5 7 8 6 8 8 7 8 7 6 5 5 5 5 5
3 4 4 5 8 4 4 5 5 3 3 5 4 6 8 7 6 6 5 5 3 3 2 2 3 3 4 5 6 6 7 6 5 5 6 7 6 6 6 6 4 4 3 4
5 6 3 3 4 5 6 3 3 5 4 7 6 5 6 8 8 7 6 4 3 3 2 2 2 3 5 5 5 5 5 5 5 6 6 5 5 5 5 5 5 7 10 9
Wind_Direction
48 269 226 232 213 248 271 269 268 273 277 269 269 270 267 279 275 274 296 337 325 313 314 321 332 322 288 262 258 261 263 256 247 246 240 246 252 227 210 202 193 183 176 179
360 245 251 259 253 245 247 260 268 276 277 267 284 276 278 280 267 178 267 307 310 311 315 312 317 312 297 300 288 264 255 256 245 236 234 229 242 218 206 198 179 168 172 172
186 243 304 263 270 264 255 257 272 271 295 288 274 282 273 259 165 159 281 276 297 305 313 314 310 306 299 288 288 280 261 250 247 239 234 229 250 221 199 185 175 177 171 172
238 279 258 268 258 273 277 245 262 284 305 282 67 294 291 290 204 360 344 327 325 322 314 311 306 302 294 288 284 282 267 248 250 241 234 228 228 219 213 192 178 171 168 173
253 228 233 254 250 219 241 329 286 283 280 297 256 229 271 124 231 329 320 322 317 310 310 308 305 300 297 288 280 280 281 247 246 242 228 220 220 218 212 180 173 170 163 162
259 301 218 222 300 250 337 344 315 38 70 359 240 193 288 275 283 301 314 315 314 313 313 305 300 300 299 288 275 284 281 264 249 242 230 216 214 206 188 168 168 162 161 145
310 237 267 203 13 9 50 41 326 348 357 229 283 291 262 167 251 276 313 320 320 317 314 311 311 310 306 308 295 291 279 275 261 243 230 212 214 195 189 183 162 157 154 148
187 322 210 158 184 208 204 156 201 286 276 294 282 240 265 188 183 344 336 323 324 327 325 319 315 311 308 309 302 291 280 275 273 255 234 207 201 191 175 176 164 163 162 149
197 267 256 266 313 128 268 203 206 270 110 3 262 285 262 235 346 344 333 330 334 326 325 324 321 317 316 316 307 298 290 283 276 264 237 197 175 177 162 166 164 155 154 135
218 289 247 64 333 270 170 270 339 281 304 303 280 278 252 311 328 326 324 328 322 322 329 326 325 323 326 327 312 312 317 294 285 281 235 178 157 170 164 158 163 155 161 157
195 207 278 43 229 204 349 318 244 254 150 254 303 263 207 237 289 312 325 333 327 328 329 327 329 332 334 334 330 334 347 332 338 331 358 140 122 153 152 150 150 148 131 147
198 190 252 220 254 225 188 216 230 269 308 253 265 282 183 216 272 329 330 330 331 333 330 333 336 338 349 341 343 347 346 0 359 352 62 72 82 73 132 131 132 136 138 136
185 198 336 330 356 68 118 226 237 336 272 262 269 269 195 263 1 356 334 332 334 338 339 343 344 351 352 349 350 355 354 1 10 25 67 51 80 68 72 81 85 124 133 132
185 179 181 250 262 124 297 274 242 264 255 263 244 280 294 332 349 345 334 335 335 341 346 346 351 353 353 353 358 356 357 5 12 40 60 64 70 70 66 67 68 60 80 125
265 255 210 242 261 258 272 272 276 243 234 240 285 254 295 321 329 330 328 335 348 354 354 351 351 351 355 359 357 358 6 4 17 44 54 54 57 66 66 60 63 64 53 54
217 258 229 271 253 211 274 265 267 244 256 249 267 281 318 295 326 345 347 345 357 355 353 353 352 354 355 1 355 2 3 6 17 40 49 55 66 61 58 57 56 61 55 52
223 217 163 251 338 342 306 247 208 246 203 171 257 247 24 321 335 339 331 342 353 356 355 354 353 349 350 353 2 2 359 8 20 33 33 43 49 54 50 55 56 58 53 57
236 204 162 221 6 327 243 245 190 200 257 234 276 266 229 260 227 257 290 317 341 351 352 347 345 344 348 348 2 2 7 18 26 33 40 43 47 54 53 54 51 50 51 50
214 160 146 191 193 293 303 259 175 120 288 208 235 287 303 326 282 315 284 290 299 328 331 332 331 335 340 354 355 7 19 19 20 25 34 34 35 47 44 44 39 37 52 51
40 213 136 93 140 223 242 270 203 118 337 254 186 219 165 160 23 265 260 285 328 337 330 341 344 350 1 355 356 18 21 22 16 14 21 28 36 50 54 45 39 31 51 54
26 61 200 202 246 286 250 231 173 68 249 234 190 191 172 201 209 209 268 276 256 283 330 351 357 11 2 357 13 32 21 22 354 4 24 33 32 42 38 51 46 43 51 54
187 148 199 102 136 280 175 130 150 216 327 226 223 208 184 160 190 221 243 273 311 349 345 0 5 9 359 3 13 30 30 357 353 7 28 28 21 27 30 47 39 42 50 57
285 201 197 191 215 236 222 218 236 167 185 226 217 202 174 160 189 191 207 214 213 18 349 342 7 4 14 9 21 24 358 355 357 21 29 25 20 28 23 42 39 42 37 50
250 169 235 77 274 233 237 247 200 200 219 220 230 192 168 171 173 187 192 189 163 136 350 346 10 22 13 5 25 26 1 351 9 33 29 26 31 20 24 30 33 43 39 40
248 158 224 251 284 297 293 239 231 235 213 241 188 190 188 167 181 176 197 191 183 145 107 52 27 21 12 358 16 10 5 356 21 32 27 23 24 17 17 19 4 22 352 37
187 213 219 242 284 231 258 255 197 228 222 210 183 186 191 179 180 175 190 189 179 164 96 48 26 10 9 2 359 352 358 9 13 36 26 19 24 18 23 18 3 15 30 35